Location: Huntsville
(41.2590°N, 111.7678°W)
Time: 20:58:37
(UTC+00:00)

Vanguard 2 Rocket - Visible Passes

Search period start: 13 June 2021 00:00
Search period end: 23 June 2021 00:00
Orbit: 554 x 3325 km, 32.9° (Epoch: 13 June)

Date Brightness Start Highest point End Pass type
(mag) Time Alt. Az. Time Alt. Az. Time Alt. Az.
13 Jun 8.9 04:40:11 10° SW 04:55:57 47° SSE 05:05:33 10° E visible
13 Jun 8.0 06:57:54 10° WSW 07:10:37 53° S 07:14:43 30° SE visible
13 Jun 8.6 09:15:53 10° W 09:28:18 11° SSE 09:28:35 10° SSE visible
14 Jun 9.3 03:38:22 10° SW 03:55:00 43° SSE 04:05:55 10° E visible
14 Jun 8.4 05:55:31 10° WSW 06:10:20 55° S 06:18:08 13° ESE visible
14 Jun 7.9 08:13:49 10° W 08:23:54 42° SSW 08:23:54 42° SSW visible
14 Jun8.810:39:56S10:39:56S10:29:39Wvisible
15 Jun 8.8 04:53:06 10° WSW 05:09:40 54° S 05:19:34 10° E visible
15 Jun 8.1 07:11:30 10° W 07:24:19 51° SSW 07:27:13 39° SE visible
15 Jun 9.1 09:30:04 10° W 09:32:58 17° WSW 09:32:58 17° WSW visible
16 Jun 9.2 03:50:54 10° SW 04:08:38 51° SSE 04:20:01 10° E visible
16 Jun 8.4 06:08:57 10° WSW 06:24:03 57° S 06:30:30 22° ESE visible
16 Jun 8.4 08:27:41 10° W 08:36:15 33° SW 08:36:15 33° SW visible
17 Jun 8.8 05:06:20 10° WSW 05:23:22 59° S 05:33:29 10° ESE visible
17 Jun 8.1 07:25:11 10° W 07:37:53 46° SSW 07:39:30 43° S visible
17 Jun 9.6 09:44:50 10° WSW 09:45:15 11° WSW 09:45:15 11° WSW visible
18 Jun 9.1 04:03:52 10° WSW 04:22:16 58° S 04:33:59 10° E visible
18 Jun 8.5 06:22:31 10° W 06:37:42 55° SSW 06:42:44 31° SE visible
18 Jun 8.9 08:41:46 10° W 08:48:29 25° WSW 08:48:29 25° WSW visible
19 Jun 8.8 05:19:47 10° WSW 05:37:03 60° S 05:45:57 16° ESE visible
19 Jun 8.4 07:38:59 10° W 07:51:16 39° SSW 07:51:42 39° SSW visible
20 Jun 9.1 04:17:08 10° WSW 04:35:55 62° S 04:47:52 10° ESE visible
20 Jun 8.5 06:36:11 10° W 06:51:13 50° SSW 06:54:54 38° SSE visible
20 Jun 9.4 08:56:19 10° W 09:00:38 17° WSW 09:00:38 17° WSW visible
21 Jun 9.4 03:14:50 10° WSW 03:34:24 61° S 03:48:04 10° E visible
21 Jun 8.8 05:33:21 10° W 05:50:38 58° SSW 05:58:05 24° SE visible
21 Jun 8.9 07:53:00 10° W 08:03:50 31° SW 08:03:50 31° SW visible
22 Jun 9.1 04:30:37 10° W 04:49:33 63° S 05:01:17 12° ESE visible
22 Jun 8.6 06:49:57 10° W 07:04:32 43° SSW 07:07:02 39° S visible
22 Jun 9.9 09:12:07 10° WSW 09:12:46 11° WSW 09:12:46 11° WSW visible
